This demonstration page uses our WeatherBlox Daily Observations layout. Learn more.

Left ArrowRight Arrow

Hourly Observations for June 7, 2016

Temp ( °F °C ) Dew Point ( °F °C ) Humidity (%) Winds ( mph kmh ) Pressure ( in mb ) Visibility ( mi km ) Precip ( " mm )
12:51 am 00:51 Clear 83 28.3 16 -8.9 8 8 NNW 7 11 29.66 1004 10 16 0.00 0.00
1:51 am 01:51 Clear 77 25 16 -8.9 10 10 W 5 7 29.66 1005 10 16 0.00 0.00
2:51 am 02:51 Clear 70 21.1 15 -9.4 12 12 Calm 29.67 1005 10 16 0.00 0.00
3:51 am 03:51 Clear 69 20.6 16 -8.9 13 13 Calm 29.70 1006 10 16 0.00 0.00
4:51 am 04:51 Clear 65 18.3 16 -8.9 15 15 ESE 7 11 29.73 1007 10 16 0.00 0.00
5:51 am 05:51 Sunny 69 20.6 17 -8.3 14 14 SE 5 7 29.75 1007 10 16 0.00 0.00
6:51 am 06:51 Sunny 77 25 18 -7.8 11 11 ESE 5 7 29.75 1008 10 16 0.00 0.00
7:51 am 07:51 Sunny 82 27.8 21 -6.1 10 10 Calm 29.77 1008 10 16 0.00 0.00
8:51 am 08:51 Sunny 87 30.6 16 -8.9 7 7 Calm 29.76 1008 10 16 0.00 0.00
9:51 am 09:51 Sunny 92 33.3 15 -9.4 6 6 W 7 11 29.75 1007 10 16 0.00 0.00
10:51 am 10:51 Sunny 95 35 20 -6.7 6 6 undefined N/A 29.74 1007 10 16 0.00 0.00
11:51 am 11:51 Sunny 98 36.7 22 -5.6 6 6 SSW 8 13 29.71 1006 10 16 0.00 0.00
12:51 pm 12:51 Sunny 98 36.7 22 -5.6 6 6 Calm 29.69 1005 10 16 0.00 0.00
1:51 pm 13:51 Sunny 101 38.3 22 -5.6 6 6 SW 9 15 29.66 1004 10 16 0.00 0.00
2:51 pm 14:51 Sunny 103 39.4 23 -5 6 6 WNW 12 19 29.64 1004 10 16 0.00 0.00
3:51 pm 15:51 Sunny 103 39.4 19 -7.2 5 5 NW 6 9 29.62 1003 10 16 0.00 0.00
4:51 pm 16:51 Sunny 102 38.9 17 -8.3 5 5 Calm 29.60 1003 10 16 0.00 0.00
5:51 pm 17:51 Sunny 102 38.9 11 -11.7 3 3 WNW 13 20 29.59 1002 10 16 0.00 0.00
6:51 pm 18:51 Sunny 99 37.2 15 -9.4 5 5 WNW 15 24 29.59 1002 10 16 0.00 0.00
7:51 pm 19:51 Clear 94 34.4 23 -5 8 8 NW 12 19 29.61 1003 10 16 0.00 0.00
8:51 pm 20:51 Clear 91 32.8 25 -3.9 9 9 NNW 14 22 29.62 1003 10 16 0.00 0.00
9:51 pm 21:51 Clear 86 30 28 -2.2 12 12 W 10 17 29.65 1004 10 16 0.00 0.00
10:51 pm 22:51 Clear 80 26.7 28 -2.2 15 15 NW 8 13 29.67 1005 10 16 0.00 0.00
11:51 pm 23:51 Clear 80 26.7 27 -2.8 14 14 NW 9 15 29.67 1005 10 16 0.00 0.00

Powered by AerisWeather